User: anonymous   Login
Location: Bruch
(44.2051°N, 0.4120°E)
Time: 06:05:57
(UTC+00:00)
Language:

Cosmos 1437 Rocket - Orbit

View from above orbital plane
View from above orbital plane
View from above satellite
View from above satellite

Ground track
Ground track

The orbit data is extracted from the following two-line orbital elements,

1 13771U 83003B   21055.79670849  .00000920  00000-0  52687-4 0  9999
2 13771  81.1678 248.3901 0043914 211.0618 148.8011 15.10822378 77340
Epoch (UTC): 24 February 2021 19:07:15
Eccentricity: 0.0043914
inclination: 81.1678°
perigee height: 503 km
apogee height: 564 km
right ascension of ascending node: 248.3901°
argument of perigee: 211.0618°
revolutions per day: 15.10822378
mean anomaly at epoch: 148.8011°
orbit number at epoch: 7734

The dashed part of the orbit path shows where the satellite is in the earth's shadow,  

DLR